Flag for U.S.A. Weather past 2 weeks in Santa Clara, California, U.S.A.

Now
63 °F

Partly sunny.


Feels Like: 63 °F
Forecast: 42 / 65 °F
Wind: No wind

Location: San Jose International Airport

Current Time: Feb 1, 2015 at 12:41:31 PM

Latest Report: Feb 1, 2015 at 11:53 AM


Visibility: 10 mi

Pressure: 30.15 "Hg

Humidity: 45%

Dew point: 41 °F

Location of Santa ClaraLocation

Historic Weather in Santa Clara — Graph

°F

Santa Clara temperature yesterday

Maximum temperature yesterday: 71 °F (at 1:53 PM)
Minimum temperature yesterday: 43 °F (at 5:53 AM)
Average temperature yesterday: 57 °F

Past Weeks' High & Low Weather Summary

 TemperatureHumidityPressure
High71 °F (Jan 31, 1:53 PM)100% (Jan 19, 5:04 AM)30.36 "Hg (Jan 19, 5:04 AM)
Low37 °F (Jan 23, 5:53 AM)19% (Jan 31, 2:53 PM)29.89 "Hg (Jan 30, 3:53 PM)
Average53 °F72%30.14 "Hg
* Reported Jan 17 10:53 AM — Feb 1 10:53 AM, Santa Clara, Weather by CustomWeather, © 2014

Note: Actual official high and low records may vary slightly from our data, if they occured in-between our weather recording intervals... More about our weather records

Advertising

Santa Clara weather history for previous 24 hours

 ConditionsComfort  
Time TempWeatherWind HumidityBarometerVisibility
10:53 AM
Feb 1
59 °FPartly sunny.No wind60%30.16 "Hg10 mi
9:53 AM53 °FPartly sunny.3 mph64%30.16 "Hg10 mi
8:53 AM49 °FPartly sunny.No wind61%30.16 "Hg10 mi
7:53 AM45 °FPartly sunny.No wind65%30.13 "Hg10 mi
6:53 AM42 °FPassing clouds.6 mph71%30.11 "Hg10 mi
5:53 AM43 °FPassing clouds.No wind68%30.10 "Hg10 mi
4:53 AM44 °FClear.3 mph65%30.09 "Hg10 mi
3:53 AM47 °FClear.No wind59%30.07 "Hg10 mi
2:53 AM47 °FClear.No wind56%30.06 "Hg10 mi
1:53 AM47 °FClear.3 mph59%30.05 "Hg10 mi
12:53 AM49 °FClear.8 mph55%30.06 "Hg10 mi
11:53 PM
Jan 31
51 °FClear.6 mph46%30.06 "Hg10 mi
10:53 PM51 °FClear.3 mph44%30.05 "Hg10 mi
9:53 PM55 °FClear.No wind39%30.04 "Hg10 mi
8:53 PM56 °FClear.No wind37%30.02 "Hg10 mi
7:53 PM58 °FClear.No wind33%30.00 "Hg10 mi
6:53 PM59 °FClear.3 mph32%29.98 "Hg10 mi
5:53 PM65 °FPassing clouds.5 mph24%29.97 "Hg10 mi
4:53 PM66 °FPassing clouds.7 mph28%29.96 "Hg10 mi
3:53 PM70 °FPassing clouds.10 mph22%29.96 "Hg10 mi
2:53 PM71 °FPassing clouds.7 mph19%29.95 "Hg10 mi
1:53 PM71 °FPassing clouds.12 mph20%29.95 "Hg10 mi
12:53 PM69 °FPassing clouds.10 mph21%29.95 "Hg10 mi
Weather by CustomWeather, © 2014

See weather overviewHow to use our weather pages